Location: Newark
(33.6439°N, 114.9881°W)
Time: 11:35:18
(UTC+00:00)

Envisat - Pass Details

Date: 27 June 2019
Orbit: 764 x 766 km, 98.1° (Epoch: 22 July)

Event Time Altitude Azimuth Distance (km) Brightness Sun altitude
Rises 03:33:38 0° 218° (SW) 3,219 6.3 -7.8°
Reaches altitude 10° 03:37:57 10° 253° (WSW) 2,300 6.0 -8.5°
Maximum altitude 03:39:17 11° 269° (W) 2,233 6.3 -8.8°
Drops below altitude 10° 03:40:38 10° 284° (WNW) 2,303 6.8 -9.0°
Sets 03:44:59 0° 320° (NW) 3,235 8.1 -9.7°
